Petersburg, AK

2:33 PM AKDT on September 24, 2017 (GMT -0800)
Johnson Petersburg

Weather History for PAPG - November, 2014

Change the Weather History Date:

Thursday, November 20, 2014

  Actual Average Record
Temperature  
Mean Temperature 39 °F -  
Max Temperature 42 °F 37 °F 51 °F (2000)
Min Temperature 37 °F 30 °F 8 °F (1985)
Degree Days  
Heating Degree Days 26    
Moisture  
Dew Point 37 °F    
Average Humidity 92    
Maximum Humidity 93    
Minimum Humidity 87    
Precipitation  
Precipitation 0.00 in - - ()
Sea Level Pressure  
Sea Level Pressure 29.52 in    
Wind  
Wind Speed 1 mph (East)    
Max Wind Speed 5 mph    
Max Gust Speed -    
Visibility 7 miles    
Events Fog , Rain    
Averages and records for this station are not official NWS values.
T = Trace of Precipitation, MM = Missing Value Source: NWS Daily Summary

Daily Weather History Graph

Daily Weather History Graph

Search for Another Location

Airport or City:

Trip Planner

Search our weather history database for the weather conditions in past years. The results will help you decide how hot, cold, wet, or windy it might be!

Date:

Astronomy

Nov. 20, 2014 Rise Set
Actual Time 7:43 AM AKST 3:31 PM AKST
Civil Twilight 6:58 AM AKST 4:15 PM AKST
Nautical Twilight 6:10 AM AKST 5:03 PM AKST
Astronomical Twilight 5:25 AM AKST 5:48 PM AKST
Moon 5:20 AM AKST (11/20) 3:01 PM AKST (11/20)
Length of Visible Light 9h 17m
Length of Day
7h 48m
Waning Crescent, 3% of the Moon is Illuminated
Nov 20
Waning Crescent
Nov 22
New
Nov 29
First Quarter
Dec 6
Full
Dec 14
Last Quarter

Hourly Weather History & Observations

Time (AKST) Temp. Windchill Dew Point Humidity Pressure Visibility Wind Dir Wind Speed Gust Speed Precip Events Conditions
12:52 AM 39.2 °F - 37.4 °F 93% 29.69 in 0.5 mi Calm Calm - N/A   Overcast
1:54 AM 39.2 °F - 37.4 °F 93% 29.68 in 1.5 mi Calm Calm - N/A   Overcast
3:00 AM 39.2 °F - 37.4 °F 93% 29.67 in 10.0 mi Calm Calm - N/A   Overcast
4:07 AM 39.2 °F - 35.6 °F 87% 29.65 in 1.0 mi Calm Calm - N/A   Overcast
5:01 AM 39.2 °F - 37.4 °F 93% 29.64 in 10.0 mi Calm Calm - N/A   Overcast
6:00 AM 39.2 °F - 37.4 °F 93% 29.63 in 1.0 mi Calm Calm - N/A   Overcast
6:56 AM 37.4 °F - 35.6 °F 93% 29.61 in 3.0 mi Calm Calm - N/A   Overcast
7:36 AM 39.2 °F - 35.6 °F 87% 29.59 in 7.0 mi Calm Calm - N/A Fog Patches of Fog
7:56 AM 39.2 °F - 37.4 °F 93% 29.59 in 7.0 mi Calm Calm - N/A Fog Patches of Fog
8:56 AM 39.2 °F - 37.4 °F 93% 29.58 in 10.0 mi Calm Calm - N/A   Mostly Cloudy
9:56 AM 39.2 °F - 37.4 °F 93% 29.56 in 7.0 mi Calm Calm - N/A Fog Patches of Fog
10:36 AM 39.2 °F - 37.4 °F 93% 29.55 in 7.0 mi Calm Calm - N/A   Mostly Cloudy
10:56 AM 39.2 °F - 37.4 °F 93% 29.55 in 10.0 mi Calm Calm - N/A   Mostly Cloudy
11:56 AM 39.2 °F - 37.4 °F 93% 29.54 in 10.0 mi Calm Calm - N/A   Overcast
12:56 PM 39.2 °F 35.9 °F 37.4 °F 93% 29.52 in 10.0 mi ENE 4.6 mph - N/A Rain Light Rain Showers
1:56 PM 39.2 °F 35.9 °F 37.4 °F 93% 29.49 in 10.0 mi East 4.6 mph - N/A Rain Light Rain Showers
2:56 PM 39.2 °F 37.0 °F 37.4 °F 93% 29.46 in 10.0 mi NNE 3.5 mph - N/A Rain Light Rain Showers
3:56 PM 39.2 °F - 37.4 °F 93% 29.44 in 10.0 mi Calm Calm - N/A Fog Patches of Fog
4:56 PM 39.2 °F 37.0 °F 35.6 °F 87% 29.40 in 5.0 mi SSW 3.5 mph - N/A   Overcast
5:56 PM 39.2 °F 35.9 °F 37.4 °F 93% 29.39 in 7.0 mi SSW 4.6 mph - N/A Rain Light Rain Showers
6:56 PM 39.2 °F - 37.4 °F 93% 29.37 in 7.0 mi Calm Calm - N/A Rain Light Rain Showers
7:56 PM 39.2 °F - 37.4 °F 93% 29.35 in 7.0 mi Calm Calm - N/A Rain Light Rain Showers
8:56 PM 41.0 °F - 37.4 °F 87% 29.34 in 5.0 mi Calm Calm - N/A Rain Light Rain Showers
9:56 PM 41.0 °F - 39.2 °F 93% 29.34 in 3.0 mi Calm Calm - N/A Rain Light Rain Showers
11:30 PM 42.8 °F - 39.2 °F 87% 29.34 in 9.0 mi Calm Calm - N/A   Overcast